Weather History for Albuquerque, NM

Change the Weather History Date:

Sunday, June 2, 2013

  Actual Average Record
Temperature  
Mean Temperature 75 °F 71 °F  
Max Temperature 86 °F 85 °F 96 °F (1958)
Min Temperature 63 °F 58 °F 36 °F (1917)
Degree Days  
Heating Degree Days 0 0  
Month to date heating degree days 0 0  
Since 1 June heating degree days 0 0  
Since 1 July heating degree days 3894 4175  
Cooling Degree Days 10 6  
Month to date cooling degree days 14 12  
Year to date cooling degree days 131 110  
Since 1 June cooling degree days 14 12  
Growing Degree Days 24 (Base 50)    
Moisture  
Dew Point 36 °F    
Average Humidity 26    
Maximum Humidity 35    
Minimum Humidity 17    
Precipitation  
Precipitation T in 0.01 in 1.61 in (1952)
Month to date precipitation T 0.03  
Year to date precipitation 0.68 2.57  
Snow  
Snow 0.00 in - - ()
Month to date snowfall 0.0  
Since 1 June snowfall 0.0  
Since 1 July snowfall 3.5  
Snow Depth 0.00 in    
Sea Level Pressure  
Sea Level Pressure 29.86 in    
Wind  
Wind Speed 14 mph (ESE)    
Max Wind Speed 30 mph    
Max Gust Speed 38 mph    
Visibility 10 miles    
Events Rain , Thunderstorm    
T = Trace of Precipitation, MM = Missing Value Source: NWS Daily Summary

Daily Weather History Graph

Daily Weather History Graph

Search for Another Location

Airport:

Trip Planner

Search our weather history database for the weather conditions in past years. The results will help you decide how hot, cold, wet, or windy it might be!

Date:

Astronomy

Jun. 02, 2013 Rise Set
Actual Time 5:53 AM MDT 8:16 PM MDT
Civil Twilight 5:23 AM MDT 8:45 PM MDT
Nautical Twilight 4:47 AM MDT 9:21 PM MDT
Astronomical Twilight 4:08 AM MDT 10:01 PM MDT
Moon 2:09 AM MDT (6/2) 3:00 PM MDT (6/2)
Length of Visible Light 15h 21m
Length of Day
14h 22m
Waning Crescent, 30% of the Moon is Illuminated
Jun 2
Waning Crescent
Jun 8
New
Jun 16
First Quarter
Jun 23
Full
Jun 29
Last Quarter

Hourly Weather History & Observations

Time (MDT) Temp. Dew Point Humidity Pressure Visibility Wind Dir Wind Speed Gust Speed Precip Events Conditions
12:52 AM 71.1 °F 28.9 °F 21% 29.88 in 10.0 mi East 26.5 mph 33.4 mph N/A   Partly Cloudy
1:47 AM 68.0 °F 28.4 °F 23% 30.13 in 8.0 mi East 26.5 mph 34.5 mph N/A   Scattered Clouds
1:52 AM 68.0 °F 28.4 °F 23% 29.88 in 8.0 mi East 27.6 mph 35.7 mph N/A   Scattered Clouds
2:52 AM 66.9 °F 28.9 °F 24% 29.88 in 10.0 mi East 25.3 mph 35.7 mph N/A   Scattered Clouds
3:52 AM 64.9 °F 30.0 °F 27% 29.89 in 10.0 mi East 25.3 mph 34.5 mph N/A   Scattered Clouds
4:52 AM 64.0 °F 30.0 °F 28% 29.90 in 10.0 mi East 24.2 mph - N/A   Mostly Cloudy
5:52 AM 64.0 °F 30.0 °F 28% 29.91 in 10.0 mi East 24.2 mph 31.1 mph N/A   Overcast
6:52 AM 63.0 °F 30.0 °F 29% 29.94 in 10.0 mi East 20.7 mph 27.6 mph N/A   Overcast
7:52 AM 66.0 °F 32.0 °F 28% 29.94 in 10.0 mi East 18.4 mph 25.3 mph N/A   Overcast
8:52 AM 69.1 °F 33.1 °F 26% 29.94 in 10.0 mi East 20.7 mph - N/A   Mostly Cloudy
9:52 AM 73.9 °F 33.1 °F 22% 29.94 in 10.0 mi East 9.2 mph - N/A   Mostly Cloudy
10:52 AM 78.1 °F 33.1 °F 19% 29.92 in 10.0 mi SE 9.2 mph - N/A   Mostly Cloudy
11:52 AM 78.1 °F 34.0 °F 20% 29.90 in 10.0 mi Variable 3.5 mph - N/A   Mostly Cloudy
12:52 PM 82.0 °F 34.0 °F 18% 29.86 in 10.0 mi Variable 4.6 mph - N/A   Mostly Cloudy
1:52 PM 84.9 °F 36.0 °F 17% 29.81 in 10.0 mi Calm Calm - N/A   Mostly Cloudy
2:52 PM 84.9 °F 37.9 °F 19% 29.76 in 10.0 mi NW 5.8 mph - N/A   Mostly Cloudy
3:42 PM 84.2 °F 37.4 °F 19% 30.03 in 10.0 mi SSW 17.3 mph 28.8 mph N/A Thunderstorm Thunderstorm
3:52 PM 82.9 °F 32.0 °F 16% 29.80 in 4.0 mi SSW 19.6 mph 36.8 mph 0.00 in Rain , Thunderstorm Light Thunderstorms and Rain
4:39 PM 80.6 °F 37.4 °F 21% 30.01 in 10.0 mi ESE 6.9 mph - 0.00 in   Mostly Cloudy
4:52 PM 80.1 °F 37.9 °F 22% 29.76 in 10.0 mi ESE 5.8 mph - 0.00 in   Mostly Cloudy
5:52 PM 81.0 °F 37.0 °F 21% 29.74 in 10.0 mi SE 17.3 mph - N/A   Mostly Cloudy
5:58 PM 80.6 °F 37.4 °F 21% 29.98 in 10.0 mi SSE 18.4 mph - 0.00 in Rain , Thunderstorm Light Thunderstorms and Rain
6:44 PM 80.6 °F 44.6 °F 28% 29.97 in 10.0 mi SE 9.2 mph - 0.00 in   Scattered Clouds
6:52 PM 80.1 °F 43.0 °F 27% 29.73 in 10.0 mi ESE 9.2 mph - 0.00 in   Scattered Clouds
7:52 PM 77.0 °F 45.0 °F 32% 29.71 in 10.0 mi SE 10.4 mph - N/A   Scattered Clouds
8:52 PM 73.9 °F 43.0 °F 33% 29.72 in 10.0 mi ESE 8.1 mph - N/A   Scattered Clouds
9:52 PM 73.9 °F 42.1 °F 32% 29.72 in 10.0 mi East 9.2 mph - N/A   Mostly Cloudy
10:52 PM 75.0 °F 43.0 °F 32% 29.73 in 10.0 mi Calm Calm - N/A   Mostly Cloudy
11:52 PM 72.0 °F 43.0 °F 35% 29.76 in 10.0 mi ENE 13.8 mph 18.4 mph N/A   Mostly Cloudy